Meteo pe oră la Bolshoe Packovo

Astăzi, 9 Mai, Duminică

Timp Temperatura Precipitaţii Vânt Presiune Umiditate
00:00 +1°C° 0 mm 5 m/s 741 mmHg 76%
01:00 0°C° 0 mm 5 m/s 742 mmHg 78%
02:00 0°C° 0 mm 5 m/s 743 mmHg 80%
03:00 -1°C° 0 mm 5 m/s 743 mmHg 81%
04:00 -1°C° 0 mm 5 m/s 744 mmHg 82%
05:00 -1°C° 0 mm 4 m/s 744 mmHg 82%
06:00 0°C° 0 mm 5 m/s 745 mmHg 75%
07:00 +2°C° 0 mm 5 m/s 746 mmHg 69%
08:00 +4°C° 0 mm 6 m/s 746 mmHg 62%
09:00 +5°C° 0 mm 6 m/s 746 mmHg 57%
10:00 +7°C° 0 mm 6 m/s 747 mmHg 52%
11:00 +8°C° 0 mm 6 m/s 747 mmHg 46%
12:00 +9°C° 0 mm 6 m/s 747 mmHg 46%
13:00 +9°C° 0 mm 6 m/s 748 mmHg 45%
14:00 +10°C° 0 mm 5 m/s 748 mmHg 44%
15:00 +10°C° 0 mm 5 m/s 748 mmHg 47%
16:00 +11°C° 0 mm 4 m/s 749 mmHg 49%
17:00 +11°C° 0 mm 4 m/s 749 mmHg 52%
18:00 +9°C° 0 mm 3 m/s 749 mmHg 56%
19:00 +7°C° 0 mm 2 m/s 750 mmHg 60%
20:00 +6°C° 0 mm 2 m/s 750 mmHg 64%
21:00 +5°C° 0 mm 2 m/s 750 mmHg 63%
22:00 +6°C° 0 mm 1 m/s 751 mmHg 61%
23:00 +5°C° 0 mm 1 m/s 751 mmHg 60%

Mâine, 10 Mai, Luni

Timp Temperatura Precipitaţii Vânt Presiune Umiditate
00:00 +5°C° 0 mm 1 m/s 751 mmHg 61%
01:00 +5°C° 0 mm 1 m/s 751 mmHg 62%
02:00 +3°C° 0 mm 2 m/s 752 mmHg 63%
03:00 +3°C° 0 mm 2 m/s 752 mmHg 65%
04:00 +3°C° 0 mm 2 m/s 752 mmHg 67%
05:00 +3°C° 0 mm 2 m/s 752 mmHg 68%
06:00 +5°C° 0 mm 2 m/s 753 mmHg 65%
07:00 +7°C° 0 mm 3 m/s 753 mmHg 61%
08:00 +9°C° 0 mm 3 m/s 753 mmHg 57%
09:00 +11°C° 0 mm 3 m/s 753 mmHg 54%
10:00 +12°C° 0 mm 3 m/s 753 mmHg 52%
11:00 +13°C° 0 mm 3 m/s 753 mmHg 49%
12:00 +14°C° 0 mm 3 m/s 753 mmHg 48%
13:00 +15°C° 0 mm 2 m/s 753 mmHg 47%
14:00 +16°C° 0 mm 2 m/s 753 mmHg 46%
15:00 +16°C° 0 mm 2 m/s 753 mmHg 48%
16:00 +16°C° 0 mm 2 m/s 753 mmHg 49%
17:00 +16°C° 0 mm 2 m/s 752 mmHg 50%
18:00 +14°C° 0 mm 2 m/s 753 mmHg 56%
19:00 +12°C° 0 mm 2 m/s 753 mmHg 61%
20:00 +9°C° 0 mm 2 m/s 753 mmHg 67%
21:00 +9°C° 0 mm 2 m/s 753 mmHg 67%
22:00 +8°C° 0 mm 2 m/s 753 mmHg 67%
23:00 +7°C° 0 mm 2 m/s 753 mmHg 68%

Poimâine, 11 Mai, Marţi

Timp Temperatura Precipitaţii Vânt Presiune Umiditate
00:00 +7°C° 0 mm 2 m/s 753 mmHg 69%
01:00 +6°C° 0 mm 2 m/s 753 mmHg 70%
02:00 +6°C° 0 mm 2 m/s 753 mmHg 72%
03:00 +6°C° 0 mm 2 m/s 753 mmHg 73%
04:00 +6°C° 0 mm 2 m/s 753 mmHg 75%
05:00 +6°C° 0 mm 2 m/s 753 mmHg 76%
06:00 +8°C° 0 mm 3 m/s 753 mmHg 71%
07:00 +10°C° 0 mm 3 m/s 753 mmHg 65%
08:00 +12°C° 0 mm 3 m/s 753 mmHg 59%
09:00 +13°C° 0 mm 4 m/s 753 mmHg 55%
10:00 +14°C° 0 mm 4 m/s 753 mmHg 51%
11:00 +15°C° 0 mm 5 m/s 752 mmHg 47%
12:00 +16°C° 0 mm 5 m/s 752 mmHg 46%
13:00 +16°C° 0 mm 5 m/s 752 mmHg 45%
14:00 +17°C° 0 mm 5 m/s 751 mmHg 44%
15:00 +17°C° 0 mm 5 m/s 751 mmHg 49%
16:00 +18°C° 0 mm 4 m/s 751 mmHg 53%
17:00 +17°C° 0 mm 4 m/s 751 mmHg 58%
18:00 +15°C° 0 mm 4 m/s 751 mmHg 66%
19:00 +13°C° 0 mm 4 m/s 750 mmHg 74%
20:00 +11°C° 0 mm 3 m/s 750 mmHg 82%
21:00 +11°C° 0 mm 3 m/s 750 mmHg 86%
22:00 +10°C° 0 mm 3 m/s 750 mmHg 89%
23:00 +10°C° 0 mm 3 m/s 750 mmHg 92%

12 Mai, Miercuri

Timp Temperatura Precipitaţii Vânt Presiune Umiditate
00:00 +9°C° 0 mm 3 m/s 750 mmHg 93%
01:00 +9°C° 0 mm 3 m/s 750 mmHg 94%
02:00 +9°C° 0 mm 3 m/s 749 mmHg 95%
03:00 +9°C° 0 mm 3 m/s 749 mmHg 94%
04:00 +9°C° 0 mm 3 m/s 749 mmHg 93%
05:00 +8°C° 0 mm 4 m/s 748 mmHg 93%
06:00 +10°C° 0 mm 4 m/s 748 mmHg 90%
07:00 +11°C° 0 mm 4 m/s 748 mmHg 87%
08:00 +12°C° 0 mm 5 m/s 748 mmHg 84%
09:00 +12°C° 0.1 mm 4 m/s 747 mmHg 86%
10:00 +12°C° 0.1 mm 4 m/s 747 mmHg 88%
11:00 +12°C° 0.1 mm 3 m/s 746 mmHg 91%
12:00 +11°C° 1.9 mm 4 m/s 746 mmHg 92%
13:00 +9°C° 1.9 mm 5 m/s 746 mmHg 93%
14:00 +8°C° 1.9 mm 6 m/s 746 mmHg 94%
15:00 +9°C° 0.4 mm 5 m/s 746 mmHg 89%
16:00 +10°C° 0.4 mm 5 m/s 747 mmHg 83%
17:00 +12°C° 0.4 mm 5 m/s 747 mmHg 78%
18:00 +11°C° 0 mm 4 m/s 747 mmHg 82%
19:00 +10°C° 0 mm 4 m/s 747 mmHg 86%
20:00 +9°C° 0 mm 3 m/s 747 mmHg 91%
21:00 +8°C° 0 mm 4 m/s 747 mmHg 90%
22:00 +8°C° 0 mm 4 m/s 746 mmHg 90%
23:00 +8°C° 0 mm 5 m/s 746 mmHg 89%

13 Mai, Joi

Timp Temperatura Precipitaţii Vânt Presiune Umiditate
00:00 +8°C° 0 mm 5 m/s 746 mmHg 89%
01:00 +8°C° 0 mm 5 m/s 745 mmHg 89%
02:00 +7°C° 0 mm 5 m/s 745 mmHg 89%
03:00 +8°C° 0 mm 5 m/s 744 mmHg 89%
04:00 +8°C° 0 mm 5 m/s 743 mmHg 89%
05:00 +8°C° 0 mm 6 m/s 743 mmHg 88%
06:00 +9°C° 0.2 mm 6 m/s 742 mmHg 88%
07:00 +10°C° 0.2 mm 6 m/s 742 mmHg 88%
08:00 +11°C° 0.2 mm 6 m/s 742 mmHg 87%
09:00 +11°C° 0.5 mm 6 m/s 741 mmHg 86%
10:00 +11°C° 0.5 mm 6 m/s 741 mmHg 84%
11:00 +11°C° 0.5 mm 6 m/s 741 mmHg 82%
12:00 +12°C° 0.5 mm 7 m/s 741 mmHg 78%
13:00 +12°C° 0.5 mm 7 m/s 741 mmHg 73%
14:00 +13°C° 0.5 mm 8 m/s 741 mmHg 68%
15:00 +14°C° 0.1 mm 7 m/s 741 mmHg 69%
16:00 +14°C° 0.1 mm 7 m/s 741 mmHg 70%
17:00 +14°C° 0.1 mm 6 m/s 741 mmHg 70%
18:00 +13°C° 0 mm 5 m/s 741 mmHg 73%
19:00 +12°C° 0 mm 4 m/s 742 mmHg 76%
20:00 +11°C° 0 mm 4 m/s 742 mmHg 79%
21:00 +11°C° 0 mm 3 m/s 742 mmHg 81%
22:00 +11°C° 0 mm 3 m/s 742 mmHg 83%
23:00 +10°C° 0 mm 2 m/s 742 mmHg 85%

14 Mai, Vineri

Timp Temperatura Precipitaţii Vânt Presiune Umiditate
00:00 +10°C° 0 mm 2 m/s 741 mmHg 87%
01:00 +10°C° 0 mm 2 m/s 741 mmHg 88%
02:00 +9°C° 0 mm 2 m/s 741 mmHg 90%
03:00 +10°C° 0.5 mm 2 m/s 741 mmHg 92%
04:00 +10°C° 0.5 mm 2 m/s 740 mmHg 94%
05:00 +10°C° 0.5 mm 2 m/s 740 mmHg 97%
06:00 +12°C° 0 mm 2 m/s 740 mmHg 96%
07:00 +12°C° 0 mm 2 m/s 740 mmHg 95%
08:00 +13°C° 0 mm 2 m/s 740 mmHg 94%
09:00 +15°C° 0.2 mm 2 m/s 740 mmHg 87%
10:00 +16°C° 0.2 mm 2 m/s 740 mmHg 80%
11:00 +18°C° 0.2 mm 2 m/s 740 mmHg 73%
12:00 +18°C° 0.6 mm 2 m/s 740 mmHg 70%
13:00 +19°C° 0.6 mm 2 m/s 740 mmHg 67%
14:00 +19°C° 0.6 mm 2 m/s 740 mmHg 64%
15:00 +19°C° 0.3 mm 2 m/s 740 mmHg 65%
16:00 +19°C° 0.3 mm 2 m/s 740 mmHg 67%
17:00 +19°C° 0.3 mm 2 m/s 740 mmHg 68%
18:00 +18°C° 0.3 mm 1 m/s 740 mmHg 74%
19:00 +16°C° 0.3 mm 1 m/s 740 mmHg 80%
20:00 +14°C° 0.3 mm 1 m/s 740 mmHg 86%
21:00 +14°C° 0.1 mm 2 m/s 740 mmHg 88%
22:00 +13°C° 0.1 mm 2 m/s 740 mmHg 90%
23:00 +13°C° 0.1 mm 2 m/s 740 mmHg 92%
Arată mai mult

Formular de consimțământ

Meteoprog și furnizorii noștri de servicii pot stoca și accesa date personale, precum cookies, identificatori de dispozitiv sau alte tehnologii similare pe dispozitivul dumneavoastră și procesa astfel de date pentru a personaliza conținutul și reclamele, dar și pentru a oferi caracteristici de social media și pentru a analiza traficul.

  • Stocarea și/sau accesarea informațiilor pe dispozitivul dumneavoastră

    Cookies, identificatori de dispozitiv sau alte informații pot fi stocate sau accesate pe dispozitiv în scopurile indicate mai sus.

  • Reclame și conținut personalizat, evaluarea reclamelor și a conținutului, informații despre audiențe și dezvoltarea produselor

    Reclamele și conținutul pot fi personalizate pe baza unui profil. Pot fi adăugate date suplimentare pentru a personaliza mai bine reclamele și conținutul. Performanța reclamelor și conținutului poate fi măsurată. Pot fi obținute informații despre utilizatorii care au văzut reclamele și conținutul. Aceste date pot fi utilizate pentru a dezvolta sau îmbunătăți experiența utilizatorilor, sistemele și software-ul.

Dând clic pe ‘Sunt de acord’, permiteți utilizarea cookie-urilor menționate, a identificatorilor de dispozitiv, balizelor web sau altor tehnologii similare. Setările pot fi modificate din browser-ul dispozitivului dumneavoastră.

În anumite scopuri, interesele legitime pot prima asupra consimțământului. Puteți citi mai multe informații în acest sens în Politica privind Confidențialitatea Datelor și Cookie.